Regional Weather Roundup
Issued by NWS Goodland, KS

Home | Current Version | Previous Version | Graphics & Text | Print | Product List | Glossary On
Versions: 1 2 3 4 5 6 7 8 9 10 11 12 13 14 15 16 17 18 19 20 21 22 23 24 25 26 27 28 29 30 31 32 33 34 35 36 37 38 39 40 41 42 43 44 45 46 47 48 49 50
000
ASUS43 KGLD 221008
RWRGLD

GOODLAND FORECAST AREA HOURLY WEATHER ROUNDUP
NATIONAL WEATHER SERVICE GOODLAND KS
400 AM MDT SUN OCT 22 2017

...OFFICIAL OBSERVATIONS...

CITY           SKY/WX    TMP DP  RH WIND       PRES   REMARKS
GOODLAND KS    CLEAR     33  20  58 W10       30.16
HILL CITY KS   CLEAR     36  27  69 W8        30.15
IMPERIAL NEB   CLEAR     42  21  43 NW12      30.12
MCCOOK NEB     CLEAR     32  24  72 SW9       30.14
AKRON CO       CLEAR     36  16  44 SW12      30.14
BURLINGTON CO  CLEAR     28  19  69 SW12      30.18  WCI  18
LIMON CO       CLOUDY    20  15  81 N5        30.19R
$$

...UNOFFICIAL OBSERVATIONS...

CITY           SKY/WX    TMP DP  RH WIND       PRES   REMARKS
COLBY KS       CLEAR     30  27  86 W9        30.18R
LENORA KS        N/A     34  32  92 NW6         N/A
NORTON KS      CLEAR     34  21  60 W7        30.12
SHARON SPRINGS   N/A     30  22  70 SW7         N/A
TRENTON NEB      N/A     34  32  92 NW6         N/A
KIT CARSON CO    N/A     26  16  65 CALM        N/A
YUMA CO        FAIR      27  21  80 SW6       30.14S
$$




USA.gov is the U.S. government's official web portal to all federal, state and local government web resources and services.